Year,Month,Day,Hour,Minute,Value (Times are PST for temperature in C)
2016,08,26,00,00,19.60
2016,08,26,00,01,19.50
2016,08,26,00,02,19.50
2016,08,26,00,03,19.50
2016,08,26,00,04,19.50
2016,08,26,00,05,19.40
2016,08,26,00,06,19.40
2016,08,26,00,07,19.40
2016,08,26,00,08,19.40
2016,08,26,00,09,19.40
2016,08,26,00,10,19.30
2016,08,26,00,11,19.30
2016,08,26,00,12,19.30
2016,08,26,00,13,19.30
2016,08,26,00,14,19.20
2016,08,26,00,15,19.20
2016,08,26,00,16,19.20
2016,08,26,00,17,19.20
2016,08,26,00,18,19.10
2016,08,26,00,19,19.10
2016,08,26,00,20,19.10
2016,08,26,00,21,19.10
2016,08,26,00,22,19.10
2016,08,26,00,23,19.00
2016,08,26,00,24,19.00
2016,08,26,00,25,19.00
2016,08,26,00,26,19.00
2016,08,26,00,27,18.90
2016,08,26,00,28,18.90
2016,08,26,00,29,18.90
2016,08,26,00,30,18.90
2016,08,26,00,31,18.80
2016,08,26,00,32,18.80
2016,08,26,00,33,18.80
2016,08,26,00,34,18.80
2016,08,26,00,35,18.80
2016,08,26,00,36,18.70
2016,08,26,00,37,18.70
2016,08,26,00,38,18.70
2016,08,26,00,39,18.70
2016,08,26,00,40,18.60
2016,08,26,00,41,18.60
2016,08,26,00,42,18.60
2016,08,26,00,43,18.60
2016,08,26,00,44,18.60
2016,08,26,00,45,18.60
2016,08,26,00,46,18.60
2016,08,26,00,47,18.60
2016,08,26,00,48,18.50
2016,08,26,00,49,18.50
2016,08,26,00,50,18.50
2016,08,26,00,51,18.50
2016,08,26,00,52,18.40
2016,08,26,00,53,18.40
2016,08,26,00,54,18.40
2016,08,26,00,55,18.40
2016,08,26,00,56,18.40
2016,08,26,00,57,18.30
2016,08,26,00,58,18.30
2016,08,26,00,59,18.30
2016,08,26,01,00,18.30
2016,08,26,01,01,18.30
2016,08,26,01,02,18.30
2016,08,26,01,03,18.30
2016,08,26,01,04,18.30
2016,08,26,01,05,18.30
2016,08,26,01,06,18.30
2016,08,26,01,07,18.30
2016,08,26,01,08,18.30
2016,08,26,01,09,18.30
2016,08,26,01,10,18.30
2016,08,26,01,11,18.20
2016,08,26,01,12,18.20
2016,08,26,01,13,18.20
2016,08,26,01,14,18.20
2016,08,26,01,15,18.20
2016,08,26,01,16,18.10
2016,08,26,01,17,18.10
2016,08,26,01,18,18.10
2016,08,26,01,19,18.00
2016,08,26,01,20,18.00
2016,08,26,01,21,17.90
2016,08,26,01,22,17.90
2016,08,26,01,23,17.90
2016,08,26,01,24,17.80
2016,08,26,01,25,17.80
2016,08,26,01,26,17.70
2016,08,26,01,27,17.70
2016,08,26,01,28,17.70
2016,08,26,01,29,17.60
2016,08,26,01,30,17.60
2016,08,26,01,31,17.60
2016,08,26,01,32,17.50
2016,08,26,01,33,17.50
2016,08,26,01,34,17.50
2016,08,26,01,35,17.50
2016,08,26,01,36,17.50
2016,08,26,01,37,17.50
2016,08,26,01,38,17.50
2016,08,26,01,39,17.50
2016,08,26,01,40,17.50
2016,08,26,01,41,17.50
2016,08,26,01,42,17.50
2016,08,26,01,43,17.50
2016,08,26,01,44,17.50
2016,08,26,01,45,17.50
2016,08,26,01,46,17.50
2016,08,26,01,47,17.50
2016,08,26,01,48,17.40
2016,08,26,01,49,17.50
2016,08,26,01,50,17.50
2016,08,26,01,51,17.50
2016,08,26,01,52,17.40
2016,08,26,01,53,17.40
2016,08,26,01,54,17.40
2016,08,26,01,55,17.40
2016,08,26,01,56,17.40
2016,08,26,01,57,17.40
2016,08,26,01,58,17.40
2016,08,26,01,59,17.40
2016,08,26,02,00,17.40
2016,08,26,02,01,17.40
2016,08,26,02,02,17.40
2016,08,26,02,03,17.40
2016,08,26,02,04,17.30
2016,08,26,02,05,17.30
2016,08,26,02,06,17.30
2016,08,26,02,07,17.30
2016,08,26,02,08,17.30
2016,08,26,02,09,17.30
2016,08,26,02,10,17.20
2016,08,26,02,11,17.20
2016,08,26,02,12,17.20
2016,08,26,02,13,17.20
2016,08,26,02,14,17.20
2016,08,26,02,15,17.10
2016,08,26,02,16,17.10
2016,08,26,02,17,17.10
2016,08,26,02,18,17.10
2016,08,26,02,19,17.10
2016,08,26,02,20,17.10
2016,08,26,02,21,17.10
2016,08,26,02,22,17.10
2016,08,26,02,23,17.10
2016,08,26,02,24,17.10
2016,08,26,02,25,17.10
2016,08,26,02,26,17.00
2016,08,26,02,27,17.00
2016,08,26,02,28,17.00
2016,08,26,02,29,16.90
2016,08,26,02,30,16.90
2016,08,26,02,31,16.90
2016,08,26,02,32,16.90
2016,08,26,02,33,16.80
2016,08,26,02,34,16.80
2016,08,26,02,35,16.80
2016,08,26,02,36,16.80
2016,08,26,02,37,16.80
2016,08,26,02,38,16.80
2016,08,26,02,39,16.80
2016,08,26,02,40,16.70
2016,08,26,02,41,16.70
2016,08,26,02,42,16.70
2016,08,26,02,43,16.70
2016,08,26,02,44,16.70
2016,08,26,02,45,16.70
2016,08,26,02,46,16.70
2016,08,26,02,47,16.70
2016,08,26,02,48,16.60
2016,08,26,02,49,16.60
2016,08,26,02,50,16.60
2016,08,26,02,51,16.60
2016,08,26,02,52,16.60
2016,08,26,02,53,16.60
2016,08,26,02,54,16.50
2016,08,26,02,55,16.50
2016,08,26,02,56,16.50
2016,08,26,02,57,16.50
2016,08,26,02,58,16.50
2016,08,26,02,59,16.50
2016,08,26,03,00,16.40
2016,08,26,03,01,16.40
2016,08,26,03,02,16.40
2016,08,26,03,03,16.40
2016,08,26,03,04,16.40
2016,08,26,03,05,16.40
2016,08,26,03,06,16.40
2016,08,26,03,07,16.40
2016,08,26,03,08,16.30
2016,08,26,03,09,16.30
2016,08,26,03,10,16.30
2016,08,26,03,11,16.30
2016,08,26,03,12,16.30
2016,08,26,03,13,16.20
2016,08,26,03,14,16.20
2016,08,26,03,15,16.20
2016,08,26,03,16,16.20
2016,08,26,03,17,16.10
2016,08,26,03,18,16.10
2016,08,26,03,19,16.10
2016,08,26,03,20,16.10
2016,08,26,03,21,16.10
2016,08,26,03,22,16.00
2016,08,26,03,23,16.00
2016,08,26,03,24,16.00
2016,08,26,03,25,16.00
2016,08,26,03,26,15.90
2016,08,26,03,27,15.90
2016,08,26,03,28,15.90
2016,08,26,03,29,15.90
2016,08,26,03,30,15.90
2016,08,26,03,31,15.90
2016,08,26,03,32,15.90
2016,08,26,03,33,15.90
2016,08,26,03,34,15.80
2016,08,26,03,35,15.80
2016,08,26,03,36,15.80
2016,08,26,03,37,15.80
2016,08,26,03,38,15.80
2016,08,26,03,39,15.70
2016,08,26,03,40,15.70
2016,08,26,03,41,15.70
2016,08,26,03,42,15.70
2016,08,26,03,43,15.70
2016,08,26,03,44,15.70
2016,08,26,03,45,15.70
2016,08,26,03,46,15.70
2016,08,26,03,47,15.70
2016,08,26,03,48,15.60
2016,08,26,03,49,15.60
2016,08,26,03,50,15.60
2016,08,26,03,51,15.60
2016,08,26,03,52,15.60
2016,08,26,03,53,15.60
2016,08,26,03,54,15.50
2016,08,26,03,55,15.50
2016,08,26,03,56,15.50
2016,08,26,03,57,15.50
2016,08,26,03,58,15.50
2016,08,26,03,59,15.50
2016,08,26,04,00,15.50
2016,08,26,04,01,15.40
2016,08,26,04,02,15.40
2016,08,26,04,03,15.40
2016,08,26,04,04,15.40
2016,08,26,04,05,15.40
2016,08,26,04,06,15.40
2016,08,26,04,07,15.40
2016,08,26,04,08,15.40
2016,08,26,04,09,15.40
2016,08,26,04,10,15.40
2016,08,26,04,11,15.40
2016,08,26,04,12,15.40
2016,08,26,04,13,15.40
2016,08,26,04,14,15.40
2016,08,26,04,15,15.40
2016,08,26,04,16,15.40
2016,08,26,04,17,15.40
2016,08,26,04,18,15.40
2016,08,26,04,19,15.40
2016,08,26,04,20,15.40
2016,08,26,04,21,15.40
2016,08,26,04,22,15.40
2016,08,26,04,23,15.40
2016,08,26,04,24,15.40
2016,08,26,04,25,15.30
2016,08,26,04,26,15.30
2016,08,26,04,27,15.30
2016,08,26,04,28,15.30
2016,08,26,04,29,15.30
2016,08,26,04,30,15.30
2016,08,26,04,31,15.30
2016,08,26,04,32,15.30
2016,08,26,04,33,15.20
2016,08,26,04,34,15.20
2016,08,26,04,35,15.20
2016,08,26,04,36,15.20
2016,08,26,04,37,15.10
2016,08,26,04,38,15.10
2016,08,26,04,39,15.10
2016,08,26,04,40,15.10
2016,08,26,04,41,15.00
2016,08,26,04,42,15.00
2016,08,26,04,43,15.00
2016,08,26,04,44,15.00
2016,08,26,04,45,15.00
2016,08,26,04,46,15.00
2016,08,26,04,47,14.90
2016,08,26,04,48,14.90
2016,08,26,04,49,14.90
2016,08,26,04,50,14.90
2016,08,26,04,51,14.90
2016,08,26,04,52,14.90
2016,08,26,04,53,14.90
2016,08,26,04,54,14.90
2016,08,26,04,55,14.80
2016,08,26,04,56,14.80
2016,08,26,04,57,14.80
2016,08,26,04,58,14.80
2016,08,26,04,59,14.80
2016,08,26,05,00,14.80
2016,08,26,05,01,14.80
2016,08,26,05,02,14.80
2016,08,26,05,03,14.80
2016,08,26,05,04,14.80
2016,08,26,05,05,14.80
2016,08,26,05,06,14.80
2016,08,26,05,07,14.80
2016,08,26,05,08,14.80
2016,08,26,05,09,14.80
2016,08,26,05,10,14.70
2016,08,26,05,11,14.70
2016,08,26,05,12,14.70
2016,08,26,05,13,14.70
2016,08,26,05,14,14.70
2016,08,26,05,15,14.70
2016,08,26,05,16,14.70
2016,08,26,05,17,14.70
2016,08,26,05,18,14.70
2016,08,26,05,19,14.70
2016,08,26,05,20,14.60
2016,08,26,05,21,14.60
2016,08,26,05,22,14.60
2016,08,26,05,23,14.60
2016,08,26,05,24,14.60
2016,08,26,05,25,14.50
2016,08,26,05,26,14.50
2016,08,26,05,27,14.50
2016,08,26,05,28,14.50
2016,08,26,05,29,14.50
2016,08,26,05,30,14.50
2016,08,26,05,31,14.50
2016,08,26,05,32,14.50
2016,08,26,05,33,14.50
2016,08,26,05,34,14.50
2016,08,26,05,35,14.50
2016,08,26,05,36,14.40
2016,08,26,05,37,14.40
2016,08,26,05,38,14.40
2016,08,26,05,39,14.40
2016,08,26,05,40,14.40
2016,08,26,05,41,14.40
2016,08,26,05,42,14.40
2016,08,26,05,43,14.40
2016,08,26,05,44,14.40
2016,08,26,05,45,14.40
2016,08,26,05,46,14.40
2016,08,26,05,47,14.40
2016,08,26,05,48,14.40
2016,08,26,05,49,14.40
2016,08,26,05,50,14.40
2016,08,26,05,51,14.40
2016,08,26,05,52,14.40
2016,08,26,05,53,14.40
2016,08,26,05,54,14.40
2016,08,26,05,55,14.40
2016,08,26,05,56,14.30
2016,08,26,05,57,14.40
2016,08,26,05,58,14.30
2016,08,26,05,59,14.30
2016,08,26,06,00,14.30
2016,08,26,06,01,14.30
2016,08,26,06,02,14.30
2016,08,26,06,03,14.30
2016,08,26,06,04,14.30
2016,08,26,06,05,14.30
2016,08,26,06,06,14.30
2016,08,26,06,07,14.20
2016,08,26,06,08,14.20
2016,08,26,06,09,14.20
2016,08,26,06,10,14.20
2016,08,26,06,11,14.20
2016,08,26,06,12,14.20
2016,08,26,06,13,14.20
2016,08,26,06,14,14.20
2016,08,26,06,15,14.20
2016,08,26,06,16,14.20
2016,08,26,06,17,14.20
2016,08,26,06,18,14.20
2016,08,26,06,19,14.20
2016,08,26,06,20,14.20
2016,08,26,06,21,14.20
2016,08,26,06,22,14.20
2016,08,26,06,23,14.20
2016,08,26,06,24,14.20
2016,08,26,06,25,14.20
2016,08,26,06,26,14.20
2016,08,26,06,27,14.20
2016,08,26,06,28,14.20
2016,08,26,06,29,14.10
2016,08,26,06,30,14.10
2016,08,26,06,31,14.10
2016,08,26,06,32,14.10
2016,08,26,06,33,14.10
2016,08,26,06,34,14.10
2016,08,26,06,35,14.00
2016,08,26,06,36,14.00
2016,08,26,06,37,14.00
2016,08,26,06,38,14.00
2016,08,26,06,39,14.00
2016,08,26,06,40,14.00
2016,08,26,06,41,14.00
2016,08,26,06,42,14.00
2016,08,26,06,43,14.00
2016,08,26,06,44,14.00
2016,08,26,06,45,14.00
2016,08,26,06,46,14.00
2016,08,26,06,47,14.00
2016,08,26,06,48,14.00
2016,08,26,06,49,14.00
2016,08,26,06,50,14.00
2016,08,26,06,51,14.00
2016,08,26,06,52,14.00
2016,08,26,06,53,14.00
2016,08,26,06,54,14.00
2016,08,26,06,55,14.00
2016,08,26,06,56,14.10
2016,08,26,06,57,14.10
2016,08,26,06,58,14.10
2016,08,26,06,59,14.10
2016,08,26,07,00,14.10
2016,08,26,07,01,14.10
2016,08,26,07,02,14.20
2016,08,26,07,03,14.20
2016,08,26,07,04,14.20
2016,08,26,07,05,14.20
2016,08,26,07,06,14.20
2016,08,26,07,07,14.20
2016,08,26,07,08,14.20
2016,08,26,07,09,14.20
2016,08,26,07,10,14.20
2016,08,26,07,11,14.20
2016,08,26,07,12,14.20
2016,08,26,07,13,14.20
2016,08,26,07,14,14.30
2016,08,26,07,15,14.20
2016,08,26,07,16,14.20
2016,08,26,07,17,14.20
2016,08,26,07,18,14.20
2016,08,26,07,19,14.20
2016,08,26,07,20,14.20
2016,08,26,07,21,14.30
2016,08,26,07,22,14.30
2016,08,26,07,23,14.30
2016,08,26,07,24,14.30
2016,08,26,07,25,14.30
2016,08,26,07,26,14.30
2016,08,26,07,27,14.30
2016,08,26,07,28,14.30
2016,08,26,07,29,14.30
2016,08,26,07,30,14.30
2016,08,26,07,31,14.40
2016,08,26,07,32,14.40
2016,08,26,07,33,14.50
2016,08,26,07,34,14.60
2016,08,26,07,35,14.60
2016,08,26,07,36,14.60
2016,08,26,07,37,14.60
2016,08,26,07,38,14.70
2016,08,26,07,39,14.70
2016,08,26,07,40,14.70
2016,08,26,07,41,14.70
2016,08,26,07,42,14.70
2016,08,26,07,43,14.80
2016,08,26,07,44,14.80
2016,08,26,07,45,14.80
2016,08,26,07,46,14.80
2016,08,26,07,47,14.80
2016,08,26,07,48,14.80
2016,08,26,07,49,14.80
2016,08,26,07,50,14.80
2016,08,26,07,51,14.90
2016,08,26,07,52,14.90
2016,08,26,07,53,14.90
2016,08,26,07,54,14.90
2016,08,26,07,55,15.00
2016,08,26,07,56,15.00
2016,08,26,07,57,15.00
2016,08,26,07,58,15.10
2016,08,26,07,59,15.10
2016,08,26,08,00,15.10
2016,08,26,08,01,15.20
2016,08,26,08,02,15.20
2016,08,26,08,03,15.30
2016,08,26,08,04,15.30
2016,08,26,08,05,15.30
2016,08,26,08,06,15.40
2016,08,26,08,07,15.40
2016,08,26,08,08,15.40
2016,08,26,08,09,15.50
2016,08,26,08,10,15.60
2016,08,26,08,11,15.60
2016,08,26,08,12,15.70
2016,08,26,08,13,15.70
2016,08,26,08,14,15.80
2016,08,26,08,15,15.80
2016,08,26,08,16,15.80
2016,08,26,08,17,15.90
2016,08,26,08,18,15.90
2016,08,26,08,19,16.00
2016,08,26,08,20,16.10
2016,08,26,08,21,16.10
2016,08,26,08,22,16.10
2016,08,26,08,23,16.10
2016,08,26,08,24,16.10
2016,08,26,08,25,16.10
2016,08,26,08,26,16.20
2016,08,26,08,27,16.20
2016,08,26,08,28,16.30
2016,08,26,08,29,16.30
2016,08,26,08,30,16.40
2016,08,26,08,31,16.40
2016,08,26,08,32,16.50
2016,08,26,08,33,16.60
2016,08,26,08,34,16.70
2016,08,26,08,35,16.70
2016,08,26,08,36,16.80
2016,08,26,08,37,16.90
2016,08,26,08,38,17.00
2016,08,26,08,39,17.00
2016,08,26,08,40,17.10
2016,08,26,08,41,17.10
2016,08,26,08,42,17.20
2016,08,26,08,43,17.20
2016,08,26,08,44,17.30
2016,08,26,08,45,17.40
2016,08,26,08,46,17.50
2016,08,26,08,47,17.60
2016,08,26,08,48,17.70
2016,08,26,08,49,17.80
2016,08,26,08,50,17.80
2016,08,26,08,51,17.90
2016,08,26,08,52,18.00
2016,08,26,08,53,18.10
2016,08,26,08,54,18.20
2016,08,26,08,55,18.30
2016,08,26,08,56,18.40
2016,08,26,08,57,18.40
2016,08,26,08,58,18.50
2016,08,26,08,59,18.60
2016,08,26,09,00,18.60
2016,08,26,09,01,18.70
2016,08,26,09,02,18.80
2016,08,26,09,03,18.90
2016,08,26,09,04,19.00
2016,08,26,09,05,19.10
2016,08,26,09,06,19.20
2016,08,26,09,07,19.30
2016,08,26,09,08,19.30
2016,08,26,09,09,19.40
2016,08,26,09,10,19.50
2016,08,26,09,11,19.60
2016,08,26,09,12,19.70
2016,08,26,09,13,19.80
2016,08,26,09,14,19.80
2016,08,26,09,15,19.90
2016,08,26,09,16,20.00
2016,08,26,09,17,20.10
2016,08,26,09,18,20.10
2016,08,26,09,19,20.30
2016,08,26,09,20,20.30
2016,08,26,09,21,20.40
2016,08,26,09,22,20.50
2016,08,26,09,23,20.60
2016,08,26,09,24,20.70
2016,08,26,09,25,20.80
2016,08,26,09,26,20.90
2016,08,26,09,27,21.00
2016,08,26,09,28,21.10
2016,08,26,09,29,21.10
2016,08,26,09,30,21.20
2016,08,26,09,31,21.30
2016,08,26,09,32,21.30
2016,08,26,09,33,21.40
2016,08,26,09,34,21.40
2016,08,26,09,35,21.50
2016,08,26,09,36,21.50
2016,08,26,09,37,21.50
2016,08,26,09,38,21.60
2016,08,26,09,39,21.60
2016,08,26,09,40,21.60
2016,08,26,09,41,21.60
2016,08,26,09,42,21.70
2016,08,26,09,43,21.70
2016,08,26,09,44,21.80
2016,08,26,09,45,21.80
2016,08,26,09,46,21.80
2016,08,26,09,47,21.80
2016,08,26,09,48,21.80
2016,08,26,09,49,21.90
2016,08,26,09,50,21.90
2016,08,26,09,51,21.90
2016,08,26,09,52,21.90
2016,08,26,09,53,22.00
2016,08,26,09,54,22.00
2016,08,26,09,55,22.10
2016,08,26,09,56,22.10
2016,08,26,09,57,22.20
2016,08,26,09,58,22.20
2016,08,26,09,59,22.30
2016,08,26,10,00,22.30
2016,08,26,10,01,22.40
2016,08,26,10,02,22.40
2016,08,26,10,03,22.50
2016,08,26,10,04,22.60
2016,08,26,10,05,22.70
2016,08,26,10,06,22.70
2016,08,26,10,07,22.80
2016,08,26,10,08,22.80
2016,08,26,10,09,22.80
2016,08,26,10,10,22.80
2016,08,26,10,11,22.80
2016,08,26,10,12,22.90
2016,08,26,10,13,22.90
2016,08,26,10,14,22.90
2016,08,26,10,15,23.00
2016,08,26,10,16,23.00
2016,08,26,10,17,23.10
2016,08,26,10,18,23.10
2016,08,26,10,19,23.20
2016,08,26,10,20,23.30
2016,08,26,10,21,23.30
2016,08,26,10,22,23.40
2016,08,26,10,23,23.50
2016,08,26,10,24,23.50
2016,08,26,10,25,23.60
2016,08,26,10,26,23.60
2016,08,26,10,27,23.70
2016,08,26,10,28,23.70
2016,08,26,10,29,23.70
2016,08,26,10,30,23.70
2016,08,26,10,31,23.70
2016,08,26,10,32,23.70
2016,08,26,10,33,23.70
2016,08,26,10,34,23.70
2016,08,26,10,35,23.70
2016,08,26,10,36,23.80
2016,08,26,10,37,23.80
2016,08,26,10,38,23.80
2016,08,26,10,39,23.90
2016,08,26,10,40,24.00
2016,08,26,10,41,24.00
2016,08,26,10,42,24.10
2016,08,26,10,43,24.10
2016,08,26,10,44,24.20
2016,08,26,10,45,24.30
2016,08,26,10,46,24.40
2016,08,26,10,47,24.50
2016,08,26,10,48,24.50
2016,08,26,10,49,24.60
2016,08,26,10,50,24.70
2016,08,26,10,51,24.70
2016,08,26,10,52,24.70
2016,08,26,10,53,24.80
2016,08,26,10,54,24.80
2016,08,26,10,55,24.80
2016,08,26,10,56,24.80
2016,08,26,10,57,24.80
2016,08,26,10,58,24.80
2016,08,26,10,59,24.90
2016,08,26,11,00,24.90
2016,08,26,11,01,24.90
2016,08,26,11,02,24.90
2016,08,26,11,03,24.90
2016,08,26,11,04,25.00
2016,08,26,11,05,25.00
2016,08,26,11,06,24.90
2016,08,26,11,07,24.90
2016,08,26,11,08,24.90
2016,08,26,11,09,24.90
2016,08,26,11,10,24.90
2016,08,26,11,11,24.80
2016,08,26,11,12,24.80
2016,08,26,11,13,24.80
2016,08,26,11,14,24.80
2016,08,26,11,15,24.70
2016,08,26,11,16,24.70
2016,08,26,11,17,24.70
2016,08,26,11,18,24.70
2016,08,26,11,19,24.60
2016,08,26,11,20,24.60
2016,08,26,11,21,24.50
2016,08,26,11,22,24.40
2016,08,26,11,23,24.30
2016,08,26,11,24,24.20
2016,08,26,11,25,24.10
2016,08,26,11,26,24.10
2016,08,26,11,27,24.10
2016,08,26,11,28,24.00
2016,08,26,11,29,23.90
2016,08,26,11,30,23.90
2016,08,26,11,31,23.80
2016,08,26,11,32,23.80
2016,08,26,11,33,23.80
2016,08,26,11,34,23.80
2016,08,26,11,35,23.80
2016,08,26,11,36,23.80
2016,08,26,11,37,23.80
2016,08,26,11,38,23.80
2016,08,26,11,39,23.80
2016,08,26,11,40,23.80
2016,08,26,11,41,23.80
2016,08,26,11,42,23.90
2016,08,26,11,43,23.90
2016,08,26,11,44,23.90
2016,08,26,11,45,23.90
2016,08,26,11,46,23.90
2016,08,26,11,47,24.00
2016,08,26,11,48,24.00
2016,08,26,11,49,24.00
2016,08,26,11,50,24.00
2016,08,26,11,51,24.00
2016,08,26,11,52,24.00
2016,08,26,11,53,24.00
2016,08,26,11,54,24.00
2016,08,26,11,55,24.00
2016,08,26,11,56,24.00
2016,08,26,11,57,24.00
2016,08,26,11,58,24.00
2016,08,26,11,59,24.00
2016,08,26,12,00,24.00
2016,08,26,12,01,24.00
2016,08,26,12,02,24.10
2016,08,26,12,03,24.10
2016,08,26,12,04,24.10
2016,08,26,12,05,24.10
2016,08,26,12,06,24.10
2016,08,26,12,07,24.00
2016,08,26,12,08,24.10
2016,08,26,12,09,24.10
2016,08,26,12,10,24.10
2016,08,26,12,11,24.10
2016,08,26,12,12,24.20
2016,08,26,12,13,24.20
2016,08,26,12,14,24.30
2016,08,26,12,15,24.40
2016,08,26,12,16,24.60
2016,08,26,12,17,24.70
2016,08,26,12,18,24.80
2016,08,26,12,19,24.80
2016,08,26,12,20,24.80
2016,08,26,12,21,24.90
2016,08,26,12,22,24.90
2016,08,26,12,23,24.90
2016,08,26,12,24,24.90
2016,08,26,12,25,24.90
2016,08,26,12,26,24.90
2016,08,26,12,27,24.80
2016,08,26,12,28,24.80
2016,08,26,12,29,24.70
2016,08,26,12,30,24.70
2016,08,26,12,31,24.70
2016,08,26,12,32,24.70
2016,08,26,12,33,24.70
2016,08,26,12,34,24.70
2016,08,26,12,35,24.70
2016,08,26,12,36,24.60
2016,08,26,12,37,24.50
2016,08,26,12,38,24.50
2016,08,26,12,39,24.40
2016,08,26,12,40,24.40
2016,08,26,12,41,24.40
2016,08,26,12,42,24.40
2016,08,26,12,43,24.40
2016,08,26,12,44,24.40
2016,08,26,12,45,24.40
2016,08,26,12,46,24.40
2016,08,26,12,47,24.40
2016,08,26,12,48,24.40
2016,08,26,12,49,24.50
2016,08,26,12,50,24.50
2016,08,26,12,51,24.50
2016,08,26,12,52,24.60
2016,08,26,12,53,24.60
2016,08,26,12,54,24.70
2016,08,26,12,55,24.70
2016,08,26,12,56,24.70
2016,08,26,12,57,24.70
2016,08,26,12,58,24.70
2016,08,26,12,59,24.70
2016,08,26,13,00,24.80
2016,08,26,13,01,24.80
2016,08,26,13,02,24.90
2016,08,26,13,03,24.90
2016,08,26,13,04,25.00
2016,08,26,13,05,25.00
2016,08,26,13,06,25.00
2016,08,26,13,07,25.10
2016,08,26,13,08,25.20
2016,08,26,13,09,25.20
2016,08,26,13,10,25.20
2016,08,26,13,11,25.30
2016,08,26,13,12,25.30
2016,08,26,13,13,25.30
2016,08,26,13,14,25.20
2016,08,26,13,15,25.20
2016,08,26,13,16,25.20
2016,08,26,13,17,25.20
2016,08,26,13,18,25.20
2016,08,26,13,19,25.20
2016,08,26,13,20,25.30
2016,08,26,13,21,25.30
2016,08,26,13,22,25.30
2016,08,26,13,23,25.30
2016,08,26,13,24,25.30
2016,08,26,13,25,25.30
2016,08,26,13,26,25.40
2016,08,26,13,27,25.40
2016,08,26,13,28,25.50
2016,08,26,13,29,25.50
2016,08,26,13,30,25.60
2016,08,26,13,31,25.70
2016,08,26,13,32,25.70
2016,08,26,13,33,25.70
2016,08,26,13,34,25.70
2016,08,26,13,35,25.70
2016,08,26,13,36,25.80
2016,08,26,13,37,25.80
2016,08,26,13,38,25.90
2016,08,26,13,39,25.90
2016,08,26,13,40,26.00
2016,08,26,13,41,26.10
2016,08,26,13,42,26.10
2016,08,26,13,43,26.20
2016,08,26,13,44,26.30
2016,08,26,13,45,26.30
2016,08,26,13,46,26.40
2016,08,26,13,47,26.40
2016,08,26,13,48,26.40
2016,08,26,13,49,26.40
2016,08,26,13,50,26.50
2016,08,26,13,51,26.60
2016,08,26,13,52,26.60
2016,08,26,13,53,26.60
2016,08,26,13,54,26.50
2016,08,26,13,55,26.50
2016,08,26,13,56,26.40
2016,08,26,13,57,26.40
2016,08,26,13,58,26.30
2016,08,26,13,59,26.30
2016,08,26,14,00,26.20
2016,08,26,14,01,26.20
2016,08,26,14,02,26.20
2016,08,26,14,03,26.20
2016,08,26,14,04,26.10
2016,08,26,14,05,26.10
2016,08,26,14,06,26.10
2016,08,26,14,07,26.10
2016,08,26,14,08,26.10
2016,08,26,14,09,26.10
2016,08,26,14,10,26.00
2016,08,26,14,11,26.00
2016,08,26,14,12,25.90
2016,08,26,14,13,25.90
2016,08,26,14,14,25.90
2016,08,26,14,15,25.90
2016,08,26,14,16,25.90
2016,08,26,14,17,25.90
2016,08,26,14,18,25.80
2016,08,26,14,19,25.80
2016,08,26,14,20,25.70
2016,08,26,14,21,25.70
2016,08,26,14,22,25.70
2016,08,26,14,23,25.70
2016,08,26,14,24,25.70
2016,08,26,14,25,25.70
2016,08,26,14,26,25.70
2016,08,26,14,27,25.70
2016,08,26,14,28,25.70
2016,08,26,14,29,25.70
2016,08,26,14,30,25.80
2016,08,26,14,31,25.80
2016,08,26,14,32,25.80
2016,08,26,14,33,25.90
2016,08,26,14,34,25.90
2016,08,26,14,35,25.90
2016,08,26,14,36,25.90
2016,08,26,14,37,25.90
2016,08,26,14,38,25.90
2016,08,26,14,39,25.90
2016,08,26,14,40,25.90
2016,08,26,14,41,26.00
2016,08,26,14,42,26.00
2016,08,26,14,43,26.10
2016,08,26,14,44,26.10
2016,08,26,14,45,26.10
2016,08,26,14,46,26.20
2016,08,26,14,47,26.30
2016,08,26,14,48,26.40
2016,08,26,14,49,26.50
2016,08,26,14,50,26.70
2016,08,26,14,51,26.80
2016,08,26,14,52,26.90
2016,08,26,14,53,27.00
2016,08,26,14,54,27.10
2016,08,26,14,55,27.10
2016,08,26,14,56,27.10
2016,08,26,14,57,27.10
2016,08,26,14,58,27.20
2016,08,26,14,59,27.20
2016,08,26,15,00,27.20
2016,08,26,15,01,27.20
2016,08,26,15,02,27.20
2016,08,26,15,03,27.10
2016,08,26,15,04,27.10
2016,08,26,15,05,27.10
2016,08,26,15,06,27.10
2016,08,26,15,07,27.10
2016,08,26,15,08,27.10
2016,08,26,15,09,27.20
2016,08,26,15,10,27.20
2016,08,26,15,11,27.20
2016,08,26,15,12,27.30
2016,08,26,15,13,27.30
2016,08,26,15,14,27.30
2016,08,26,15,15,27.30
2016,08,26,15,16,27.30
2016,08,26,15,17,27.20
2016,08,26,15,18,27.20
2016,08,26,15,19,27.10
2016,08,26,15,20,27.00
2016,08,26,15,21,26.90
2016,08,26,15,22,26.90
2016,08,26,15,23,26.90
2016,08,26,15,24,26.90
2016,08,26,15,25,26.90
2016,08,26,15,26,26.90
2016,08,26,15,27,26.90
2016,08,26,15,28,26.90
2016,08,26,15,29,27.00
2016,08,26,15,30,27.00
2016,08,26,15,31,27.10
2016,08,26,15,32,27.20
2016,08,26,15,33,27.30
2016,08,26,15,34,27.30
2016,08,26,15,35,27.30
2016,08,26,15,36,27.40
2016,08,26,15,37,27.40
2016,08,26,15,38,27.40
2016,08,26,15,39,27.50
2016,08,26,15,40,27.50
2016,08,26,15,41,27.50
2016,08,26,15,42,27.40
2016,08,26,15,43,27.40
2016,08,26,15,44,27.40
2016,08,26,15,45,27.30
2016,08,26,15,46,27.20
2016,08,26,15,47,27.10
2016,08,26,15,48,27.10
2016,08,26,15,49,27.10
2016,08,26,15,50,27.00
2016,08,26,15,51,26.90
2016,08,26,15,52,26.80
2016,08,26,15,53,26.80
2016,08,26,15,54,26.70
2016,08,26,15,55,26.70
2016,08,26,15,56,26.60
2016,08,26,15,57,26.60
2016,08,26,15,58,26.50
2016,08,26,15,59,26.60
2016,08,26,16,00,26.60
2016,08,26,16,01,26.60
2016,08,26,16,02,26.60
2016,08,26,16,03,26.60
2016,08,26,16,04,26.60
2016,08,26,16,05,26.70
2016,08,26,16,06,26.70
2016,08,26,16,07,26.70
2016,08,26,16,08,26.80
2016,08,26,16,09,26.80
2016,08,26,16,10,26.80
2016,08,26,16,11,26.80
2016,08,26,16,12,26.80
2016,08,26,16,13,26.80
2016,08,26,16,14,26.80
2016,08,26,16,15,26.90
2016,08,26,16,16,26.90
2016,08,26,16,17,27.00
2016,08,26,16,18,27.00
2016,08,26,16,19,27.10
2016,08,26,16,20,27.10
2016,08,26,16,21,27.20
2016,08,26,16,22,27.30
2016,08,26,16,23,27.30
2016,08,26,16,24,27.40
2016,08,26,16,25,27.50
2016,08,26,16,26,27.70
2016,08,26,16,27,27.80
2016,08,26,16,28,27.90
2016,08,26,16,29,28.00
2016,08,26,16,30,28.10
2016,08,26,16,31,28.20
2016,08,26,16,32,28.30
2016,08,26,16,33,28.40
2016,08,26,16,34,28.50
2016,08,26,16,35,28.60
2016,08,26,16,36,28.70
2016,08,26,16,37,28.80
2016,08,26,16,38,29.00
2016,08,26,16,39,29.10
2016,08,26,16,40,29.30
2016,08,26,16,41,29.40
2016,08,26,16,42,29.50
2016,08,26,16,43,29.70
2016,08,26,16,44,29.80
2016,08,26,16,45,29.90
2016,08,26,16,46,30.10
2016,08,26,16,47,30.10
2016,08,26,16,48,30.20
2016,08,26,16,49,30.20
2016,08,26,16,50,30.20
2016,08,26,16,51,30.30
2016,08,26,16,52,30.30
2016,08,26,16,53,30.30
2016,08,26,16,54,30.30
2016,08,26,16,55,30.30
2016,08,26,16,56,30.30
2016,08,26,16,57,30.30
2016,08,26,16,58,30.20
2016,08,26,16,59,30.20
2016,08,26,17,00,30.20
2016,08,26,17,01,30.20
2016,08,26,17,02,30.10
2016,08,26,17,03,30.10
2016,08,26,17,04,30.10
2016,08,26,17,05,30.00
2016,08,26,17,06,30.00
2016,08,26,17,07,29.90
2016,08,26,17,08,29.90
2016,08,26,17,09,29.90
2016,08,26,17,10,29.90
2016,08,26,17,11,29.80
2016,08,26,17,12,29.80
2016,08,26,17,13,29.80
2016,08,26,17,14,29.80
2016,08,26,17,15,29.70
2016,08,26,17,16,29.70
2016,08,26,17,17,29.70
2016,08,26,17,18,29.60
2016,08,26,17,19,29.50